Home > Weather > Buenaventura > Past weeks

Flag for Colombia Past Weather in Buenaventura, Colombia — Yesterday and Last 2 Weeks

Now
84 °F

Partly sunny.


Feels Like: 87 °F
Forecast: 77 / 84 °F
Wind: 7 mph from North

Location: Cali / Alfonso Bonillaaragon

Current Time: Jul 1, 2016 at 2:00:56 PM

Latest Report: Jul 1, 2016 at 1:00 PM


Visibility: 6 mi

Pressure: 29.96 "Hg

Humidity: 58%

Dew Point: 68 °F

Location of BuenaventuraLocation

Past Weather in Buenaventura — Graph

°F

Buenaventura Temperature Yesterday

Maximum temperature yesterday: 86 °F (at 12:00 PM)
Minimum temperature yesterday: 70 °F (at 6:00 AM)
Average temperature yesterday: 76 °F

High & Low Weather Summary for the Past Weeks

 TemperatureHumidityPressure
High91 °F (Jun 27, 3:00 PM)100% (Jun 17, 6:00 AM)30.34 "Hg (Jun 17, 6:00 AM)
Low64 °F (Jun 17, 6:00 AM)36% (Jun 27, 3:00 PM)29.80 "Hg (Jun 24, 5:00 PM)
Average76 °F76%29.97 "Hg
* Reported Jun 16 1:00 PM — Jul 1 1:00 PM, Buenaventura, Weather by CustomWeather, © 2016

Note: Actual official high and low records may vary slightly from our data, if they occured in-between our weather recording intervals... More about our weather records

Advertising

Buenaventura Weather History for the Previous 24 Hours

Scroll right to see more
 ConditionsComfort  
Time TempWeatherWind HumidityBarometerVisibility
1:00 PM
Fri, Jul 1
84 °FPartly sunny.7 mph58%29.96 "Hg6 mi
12:00 PM82 °FPartly sunny.5 mph66%29.99 "Hg6 mi
11:00 AM81 °FScattered clouds.3 mph70%30.01 "Hg6 mi
10:00 AM79 °FScattered clouds.3 mph70%30.04 "Hg6 mi
9:00 AM75 °FBroken clouds.2 mph78%30.04 "Hg6 mi
8:00 AM72 °FBroken clouds.3 mph88%30.03 "Hg6 mi
7:00 AM68 °FBroken clouds.2 mph94%30.02 "Hg6 mi
6:00 AM66 °FFog.2 mph100%29.99 "Hg5 mi
5:00 AM66 °FPartly cloudy.2 mph100%29.97 "HgN/A
4:00 AM68 °FPassing clouds.No wind100%29.96 "HgN/A
3:00 AM68 °FPartly cloudy.No wind100%29.95 "HgN/A
2:00 AM70 °FPartly cloudy.No wind94%29.96 "HgN/A
1:00 AM70 °FPartly cloudy.3 mph94%29.98 "HgN/A
12:00 AM70 °FPartly cloudy.3 mph100%29.99 "HgN/A
11:00 PM
Thu, Jun 30
72 °FPartly cloudy.5 mph94%29.99 "HgN/A
10:00 PM72 °FPartly cloudy.5 mph94%29.99 "HgN/A
9:00 PM73 °FPartly cloudy.6 mph89%29.98 "HgN/A
8:00 PM75 °FPartly cloudy.12 mph78%29.95 "HgN/A
7:00 PM75 °FPartly cloudy.9 mph78%29.91 "HgN/A
6:00 PM75 °FScattered showers. Broken clouds.9 mph83%29.90 "HgN/A
5:00 PM75 °FScattered showers. Broken clouds.12 mph83%29.87 "Hg6 mi
4:00 PM75 °FThunderstorms. Broken clouds.14 mph78%29.87 "HgN/A
3:00 PM75 °FMild.12 mph83%29.87 "HgN/A
2:00 PM86 °FScattered showers. Broken clouds.5 mph55%29.89 "HgN/A
Weather by CustomWeather, © 2016

See weather overviewHow to use our weather pages